When you browse on this site, cookies collect data to enhance your experience and personalize the content and advertising you see.
Visit our Privacy Policy to learn more. By continuing to use the site, you agree to this use of cookies and data.
  • In Portugal
  • List of Countries
  • For 7 days
  • Water Temperature
  • Weather Map
  • Weather Widgets
  • user-avatar
    Login

    Hourly Weather Askiz

    Today, 6 June, Saturday

    Time Temperature Precipitation Wind Pressure Humidity
    00:00 +6°C° 0 mm 4 mps 723 mmHg 88%
    01:00 +6°C° 0 mm 4 mps 722 mmHg 89%
    02:00 +5°C° 0 mm 4 mps 722 mmHg 89%
    03:00 +5°C° 0 mm 4 mps 722 mmHg 89%
    04:00 +6°C° 0.1 mm 5 mps 723 mmHg 87%
    05:00 +6°C° 0.1 mm 5 mps 724 mmHg 85%
    06:00 +7°C° 0 mm 5 mps 724 mmHg 84%
    07:00 +8°C° 0.2 mm 5 mps 724 mmHg 81%
    08:00 +8°C° 0.2 mm 6 mps 725 mmHg 78%
    09:00 +9°C° 0.2 mm 6 mps 725 mmHg 76%
    10:00 +9°C° 0.6 mm 7 mps 725 mmHg 77%
    11:00 +9°C° 0.6 mm 7 mps 726 mmHg 78%
    12:00 +6°C° 0 mm 8 mps 726 mmHg 84%
    13:00 +6°C° 1.3 mm 8 mps 726 mmHg 86%
    14:00 +6°C° 1.3 mm 7 mps 726 mmHg 87%
    15:00 +6°C° 1.3 mm 7 mps 726 mmHg 89%
    16:00 +7°C° 1.7 mm 6 mps 726 mmHg 90%
    17:00 +7°C° 1.7 mm 5 mps 727 mmHg 90%
    18:00 +7°C° 1.7 mm 5 mps 727 mmHg 90%
    19:00 +7°C° 1 mm 4 mps 727 mmHg 91%
    20:00 +7°C° 1 mm 4 mps 728 mmHg 92%
    21:00 +7°C° 1 mm 4 mps 728 mmHg 93%
    22:00 +7°C° 0.3 mm 4 mps 729 mmHg 92%
    23:00 +7°C° 0.3 mm 4 mps 729 mmHg 92%

    Tomorrow, 7 June, Sunday

    Time Temperature Precipitation Wind Pressure Humidity
    00:00 +7°C° 0.3 mm 4 mps 729 mmHg 92%
    01:00 +7°C° 0 mm 4 mps 729 mmHg 92%
    02:00 +6°C° 0 mm 4 mps 729 mmHg 92%
    03:00 +6°C° 0 mm 4 mps 729 mmHg 92%
    04:00 +7°C° 0.2 mm 4 mps 730 mmHg 91%
    05:00 +7°C° 0.2 mm 4 mps 730 mmHg 91%
    06:00 +8°C° 0.2 mm 5 mps 730 mmHg 91%
    07:00 +9°C° 0.1 mm 5 mps 730 mmHg 84%
    08:00 +10°C° 0.1 mm 6 mps 730 mmHg 77%
    09:00 +12°C° 0.1 mm 7 mps 730 mmHg 69%
    10:00 +12°C° 0.1 mm 7 mps 730 mmHg 68%
    11:00 +12°C° 0.1 mm 7 mps 730 mmHg 67%
    12:00 +14°C° 0.1 mm 7 mps 730 mmHg 66%
    13:00 +14°C° 0.3 mm 7 mps 729 mmHg 68%
    14:00 +14°C° 0.3 mm 7 mps 729 mmHg 70%
    15:00 +13°C° 0.3 mm 8 mps 729 mmHg 72%
    16:00 +12°C° 0.3 mm 7 mps 729 mmHg 74%
    17:00 +12°C° 0.3 mm 7 mps 729 mmHg 76%
    18:00 +12°C° 0.3 mm 7 mps 729 mmHg 78%
    19:00 +11°C° 0.6 mm 6 mps 729 mmHg 83%
    20:00 +10°C° 0.6 mm 5 mps 729 mmHg 87%
    21:00 +10°C° 0.6 mm 4 mps 729 mmHg 92%
    22:00 +10°C° 1 mm 4 mps 729 mmHg 92%
    23:00 +10°C° 1 mm 3 mps 729 mmHg 92%

    Day after tomorrow, 8 June, Monday

    Time Temperature Precipitation Wind Pressure Humidity
    00:00 +9°C° 1 mm 2 mps 729 mmHg 93%
    01:00 +9°C° 0.5 mm 2 mps 729 mmHg 93%
    02:00 +8°C° 0.5 mm 2 mps 729 mmHg 93%
    03:00 +7°C° 0.5 mm 2 mps 728 mmHg 94%
    04:00 +8°C° 0.2 mm 2 mps 729 mmHg 92%
    05:00 +9°C° 0.2 mm 3 mps 729 mmHg 91%
    06:00 +10°C° 0.2 mm 3 mps 729 mmHg 89%
    07:00 +12°C° 0.2 mm 3 mps 729 mmHg 79%
    08:00 +13°C° 0.2 mm 3 mps 729 mmHg 70%
    09:00 +14°C° 0.2 mm 3 mps 729 mmHg 60%
    10:00 +16°C° 0 mm 3 mps 729 mmHg 54%
    11:00 +17°C° 0 mm 3 mps 729 mmHg 49%
    12:00 +18°C° 0 mm 3 mps 729 mmHg 44%
    13:00 +18°C° 0 mm 4 mps 729 mmHg 44%
    14:00 +19°C° 0 mm 4 mps 728 mmHg 44%
    15:00 +19°C° 0 mm 5 mps 728 mmHg 44%
    16:00 +19°C° 0 mm 4 mps 728 mmHg 50%
    17:00 +18°C° 0 mm 4 mps 728 mmHg 55%
    18:00 +17°C° 0 mm 3 mps 728 mmHg 61%
    19:00 +16°C° 0 mm 3 mps 728 mmHg 62%
    20:00 +13°C° 0 mm 3 mps 728 mmHg 63%
    21:00 +11°C° 0 mm 3 mps 728 mmHg 64%
    22:00 +11°C° 0 mm 4 mps 727 mmHg 67%
    23:00 +10°C° 0 mm 5 mps 726 mmHg 69%

    9 June, Tuesday

    Time Temperature Precipitation Wind Pressure Humidity
    00:00 +10°C° 0 mm 6 mps 726 mmHg 72%
    01:00 +10°C° 0.3 mm 6 mps 725 mmHg 75%
    02:00 +10°C° 0.3 mm 6 mps 724 mmHg 79%
    03:00 +10°C° 0.3 mm 6 mps 723 mmHg 83%
    04:00 +10°C° 0.9 mm 7 mps 723 mmHg 85%
    05:00 +11°C° 0.9 mm 7 mps 723 mmHg 88%
    06:00 +11°C° 0.9 mm 7 mps 723 mmHg 91%
    07:00 +11°C° 1.1 mm 7 mps 723 mmHg 90%
    08:00 +13°C° 1.1 mm 6 mps 723 mmHg 90%
    09:00 +13°C° 1.1 mm 6 mps 723 mmHg 90%
    10:00 +13°C° 1.8 mm 6 mps 723 mmHg 89%
    11:00 +13°C° 1.8 mm 6 mps 724 mmHg 89%
    12:00 +13°C° 1.8 mm 5 mps 724 mmHg 89%
    13:00 +14°C° 1.4 mm 5 mps 724 mmHg 88%
    14:00 +14°C° 1.4 mm 4 mps 725 mmHg 88%
    15:00 +14°C° 1.4 mm 4 mps 725 mmHg 88%
    16:00 +14°C° 1.1 mm 3 mps 725 mmHg 88%
    17:00 +14°C° 1.1 mm 2 mps 725 mmHg 89%
    18:00 +14°C° 1.1 mm 1 mps 725 mmHg 90%
    19:00 +13°C° 0.1 mm 1 mps 725 mmHg 90%
    20:00 +13°C° 0.1 mm 1 mps 726 mmHg 89%
    21:00 +12°C° 0.1 mm 1 mps 726 mmHg 89%
    22:00 +12°C° 0 mm 1 mps 726 mmHg 88%
    23:00 +12°C° 0 mm 1 mps 727 mmHg 88%

    10 June, Wednesday

    Time Temperature Precipitation Wind Pressure Humidity
    00:00 +12°C° 0 mm 1 mps 727 mmHg 88%
    01:00 +11°C° 0 mm 1 mps 727 mmHg 87%
    02:00 +11°C° 0 mm 1 mps 727 mmHg 87%
    03:00 +10°C° 0 mm 1 mps 727 mmHg 87%
    04:00 +11°C° 0 mm 1 mps 728 mmHg 85%
    05:00 +12°C° 0 mm 1 mps 728 mmHg 83%
    06:00 +12°C° 0 mm 1 mps 728 mmHg 81%
    07:00 +13°C° 0 mm 1 mps 728 mmHg 76%
    08:00 +14°C° 0 mm 1 mps 729 mmHg 70%
    09:00 +16°C° 0 mm 1 mps 729 mmHg 64%
    10:00 +16°C° 0 mm 1 mps 729 mmHg 61%
    11:00 +18°C° 0 mm 1 mps 729 mmHg 57%
    12:00 +19°C° 0 mm 1 mps 729 mmHg 54%
    13:00 +20°C° 0 mm 1 mps 729 mmHg 53%
    14:00 +20°C° 0 mm 1 mps 729 mmHg 51%
    15:00 +20°C° 0 mm 1 mps 728 mmHg 50%
    16:00 +20°C° 0 mm 1 mps 728 mmHg 53%
    17:00 +20°C° 0 mm 1 mps 728 mmHg 56%
    18:00 +20°C° 0 mm 1 mps 728 mmHg 60%
    19:00 +18°C° 0 mm 1 mps 729 mmHg 66%
    20:00 +15°C° 0 mm 1 mps 729 mmHg 72%
    21:00 +13°C° 0 mm 1 mps 729 mmHg 78%
    22:00 +13°C° 0 mm 2 mps 729 mmHg 78%
    23:00 +13°C° 0 mm 2 mps 729 mmHg 78%

    11 June, Thursday

    Time Temperature Precipitation Wind Pressure Humidity
    00:00 +13°C° 0 mm 2 mps 729 mmHg 78%
    01:00 +13°C° 0 mm 2 mps 729 mmHg 80%
    02:00 +13°C° 0 mm 2 mps 729 mmHg 81%
    03:00 +11°C° 0 mm 3 mps 729 mmHg 82%
    04:00 +12°C° 0 mm 3 mps 728 mmHg 81%
    05:00 +12°C° 0 mm 3 mps 728 mmHg 81%
    06:00 +12°C° 0 mm 4 mps 728 mmHg 80%
    07:00 +13°C° 0 mm 4 mps 728 mmHg 77%
    08:00 +15°C° 0 mm 5 mps 728 mmHg 74%
    09:00 +16°C° 0 mm 6 mps 727 mmHg 72%
    10:00 +15°C° 0.2 mm 6 mps 727 mmHg 74%
    11:00 +15°C° 0.2 mm 7 mps 727 mmHg 76%
    12:00 +15°C° 0.2 mm 7 mps 727 mmHg 78%
    13:00 +14°C° 0.9 mm 6 mps 727 mmHg 80%
    14:00 +14°C° 0.9 mm 6 mps 726 mmHg 83%
    15:00 +14°C° 0.9 mm 5 mps 726 mmHg 86%
    16:00 +14°C° 0.1 mm 5 mps 727 mmHg 83%
    17:00 +15°C° 0.1 mm 5 mps 727 mmHg 80%
    18:00 +15°C° 0.1 mm 6 mps 727 mmHg 77%
    19:00 +14°C° 0 mm 5 mps 727 mmHg 82%
    20:00 +13°C° 0 mm 4 mps 727 mmHg 86%
    21:00 +11°C° 0 mm 3 mps 727 mmHg 90%
    22:00 +11°C° 0 mm 3 mps 727 mmHg 91%
    23:00 +12°C° 0 mm 2 mps 727 mmHg 91%
    Show more